Location: Banff
(51.1667°N, 115.5667°W)
Time: 03:05:34
(UTC+00:00)

deb Explorer IX - Pass Details

Date: 28 November 2020
Orbit: 536 x 1104 km, 38.8° (Epoch: 25 January)

Event Time Altitude Azimuth Distance (km) Brightness Sun altitude
Rises 01:45:10 0° 232° (SW) 3,387 ? -18.8°
Maximum altitude 01:52:11 18° 173° (S) 1,701 ? -19.8°
Enters shadow 01:54:02 15° 146° (SE) 1,805 ? -20.1°
